TimeEST,TemperatureF,Dew PointF,Humidity,Sea Level PressureIn,VisibilityMPH,Wind Direction,Wind SpeedMPH,Gust SpeedMPH,PrecipitationIn,Events,Conditions,WindDirDegrees,DateUTC
12:53 AM,37.0,23.0,57,30.25,10.0,East,9.2,-,N/A,,Clear,80,2013-03-08 05:53:00
1:53 AM,35.1,23.0,61,30.25,10.0,ENE,6.9,-,N/A,,Clear,70,2013-03-08 06:53:00
2:53 AM,34.0,23.0,64,30.26,10.0,ENE,6.9,-,N/A,,Clear,70,2013-03-08 07:53:00
3:53 AM,33.1,21.9,64,30.26,10.0,NE,6.9,-,N/A,,Clear,50,2013-03-08 08:53:00
4:53 AM,32.0,21.9,66,30.27,10.0,ENE,4.6,-,N/A,,Clear,60,2013-03-08 09:53:00
5:53 AM,32.0,21.9,66,30.28,10.0,NE,3.5,-,N/A,,Clear,40,2013-03-08 10:53:00
6:53 AM,28.9,21.9,75,30.30,10.0,West,3.5,-,N/A,,Clear,280,2013-03-08 11:53:00
7:53 AM,35.1,24.1,64,30.31,10.0,Calm,Calm,-,N/A,,Clear,0,2013-03-08 12:53:00
8:53 AM,39.0,23.0,53,30.33,10.0,Calm,Calm,-,N/A,,Clear,0,2013-03-08 13:53:00
9:53 AM,42.1,23.0,47,30.33,10.0,Calm,Calm,-,N/A,,Clear,0,2013-03-08 14:53:00
10:53 AM,46.9,21.0,36,30.32,10.0,Variable,3.5,-,N/A,,Clear,0,2013-03-08 15:53:00
11:53 AM,53.1,19.0,26,30.29,10.0,North,4.6,-,N/A,,Clear,350,2013-03-08 16:53:00
12:53 PM,57.9,9.0,14,30.27,10.0,North,12.7,19.6,N/A,,Clear,10,2013-03-08 17:53:00
1:53 PM,59.0,10.9,15,30.25,10.0,NE,10.4,16.1,N/A,,Clear,40,2013-03-08 18:53:00
2:53 PM,61.0,10.9,14,30.23,10.0,NNE,9.2,-,N/A,,Clear,20,2013-03-08 19:53:00
3:53 PM,61.0,12.9,15,30.20,10.0,North,5.8,-,N/A,,Clear,10,2013-03-08 20:53:00
4:53 PM,62.1,10.9,13,30.19,10.0,NE,4.6,-,N/A,,Clear,40,2013-03-08 21:53:00
5:53 PM,60.1,6.1,12,30.22,10.0,NNE,9.2,-,N/A,,Clear,20,2013-03-08 22:53:00
6:53 PM,55.0,15.1,21,30.24,10.0,North,9.2,-,N/A,,Clear,360,2013-03-08 23:53:00
7:53 PM,50.0,17.1,27,30.26,10.0,North,5.8,-,N/A,,Clear,10,2013-03-09 00:53:00
8:53 PM,48.9,17.1,28,30.29,10.0,NNE,5.8,-,N/A,,Clear,30,2013-03-09 01:53:00
9:53 PM,48.0,19.0,32,30.28,10.0,NE,6.9,-,N/A,,Clear,50,2013-03-09 02:53:00
10:53 PM,45.0,19.9,37,30.29,10.0,ENE,6.9,-,N/A,,Clear,70,2013-03-09 03:53:00
11:53 PM,43.0,21.0,42,30.29,10.0,NE,6.9,-,N/A,,Clear,50,2013-03-09 04:53:00